User: anonymous   Login
Location: Dorothea Dix Park
(35.7688°N, 78.6619°W)
Time: 06:09:02
(UTC-04:00)
Language:

ISS - Orbit

View from above orbital plane
View from above orbital plane
View from above satellite
View from above satellite

Ground track
Ground track

The orbit data is extracted from the following two-line orbital elements,

1 25544U 98067A   20192.56241099  .00016717  00000-0  10270-3 0  9041
2 25544  51.6421 232.7842 0002780  95.9113 264.2354 15.49183594 35636
Epoch (UTC): 10 July 2020 13:29:52
Eccentricity: 0.0002780
inclination: 51.6421°
perigee height: 417 km
apogee height: 421 km
right ascension of ascending node: 232.7842°
argument of perigee: 95.9113°
revolutions per day: 15.49183594
mean anomaly at epoch: 264.2354°
orbit number at epoch: 3563

The dashed part of the orbit path shows where the satellite is in the earth's shadow,  

DLR